GW0360 Weather Reports


Display with metric or nautical units.
time (UTC)temp
F
wind
direction
speed
MPH
gust
MPH
rain 1hr
in
rain 24hr
in
rain mn
in
humidity
%
barometer
mb
20240522143543 62 0 0.0 4.0 0.00 0.00 0.00 73 1014.9
20240522143053 62 309 1.0 4.0 0.00 0.00 0.00 72 1014.9
20240522142544 61 0 0.0 4.0 0.00 0.00 0.00 73 1014.9
20240522142046 61 0 0.0 3.0 0.00 0.00 0.00 72 1015.0
20240522141558 60 304 0.0 2.0 0.00 0.00 0.00 73 1015.0
20240522141045 61 0 0.0 4.0 0.00 0.00 0.00 70 1014.8
20240522140544 61 0 1.0 5.0 0.00 0.00 0.00 71 1014.9
20240522140048 61 272 0.0 5.0 0.00 0.00 0.00 74 1014.9
20240522135544 60 276 1.0 5.0 0.00 0.00 0.00 77 1014.6
20240522135044 60 326 1.0 4.0 0.00 0.00 0.00 78 1014.7
20240522134556 59 0 0.0 3.0 0.00 0.00 0.00 79 1014.6
20240522134046 59 355 0.0 7.0 0.00 0.00 0.00 81 1014.4
20240522133544 59 347 1.0 7.0 0.00 0.00 0.00 81 1014.5
20240522133047 59 0 1.0 7.0 0.00 0.00 0.00 80 1014.5
20240522132545 59 0 1.0 6.0 0.00 0.00 0.00 80 1014.7
20240522132044 59 290 0.0 4.0 0.00 0.00 0.00 81 1014.1
20240522131550 59 299 0.0 8.0 0.00 0.00 0.00 82 1013.9
20240522131044 59 0 1.0 8.0 0.00 0.00 0.00 82 1013.9
20240522130546 58 0 2.0 8.0 0.00 0.00 0.00 83 1014.0
20240522130053 58 288 0.0 5.0 0.00 0.00 0.00 85 1014.1
20240522125544 58 274 0.0 4.0 0.00 0.00 0.00 85 1014.2
20240522125043 57 322 0.0 6.0 0.00 0.00 0.00 85 1014.1
20240522124554 57 315 2.0 6.0 0.00 0.00 0.00 85 1014.5
20240522124050 57 5 0.0 7.0 0.00 0.00 0.00 85 1014.7
20240522123544 57 327 2.0 7.0 0.00 0.00 0.00 85 1014.8
20240522123045 57 0 1.0 4.0 0.00 0.00 0.00 86 1015.2
20240522122543 57 296 0.0 3.0 0.00 0.00 0.00 86 1015.3
20240522122044 57 293 0.0 3.0 0.00 0.00 0.00 85 1014.9
20240522121601 57 0 1.0 2.0 0.00 0.00 0.00 86 1014.6
20240522121041 56 0 0.0 1.0 0.00 0.00 0.00 86 1014.2
20240522120544 56 0 0.0 0.0 0.00 0.00 0.00 85 1014.1
20240522120051 56 0 0.0 1.0 0.00 0.00 0.00 85 1014.1
20240522115547 56 0 0.0 1.0 0.00 0.00 0.00 86 1014.0
20240522115044 56 0 0.0 2.0 0.00 0.00 0.00 86 1013.9
20240522114548 56 0 0.0 2.0 0.00 0.00 0.00 86 1014.0
20240522114044 56 304 0.0 2.0 0.00 0.00 0.00 86 1014.4
20240522113544 56 0 0.0 2.0 0.00 0.00 0.00 86 1014.2
20240522113045 55 0 0.0 2.0 0.00 0.00 0.00 86 1014.2
20240522112545 55 0 0.0 2.0 0.00 0.00 0.00 86 1014.1
20240522112043 55 0 0.0 2.0 0.00 0.00 0.00 87 1014.1
20240522111551 55 0 0.0 1.0 0.00 0.00 0.00 87 1014.0
20240522111044 55 0 0.0 0.0 0.00 0.00 0.00 86 1013.9
20240522110542 55 0 0.0 1.0 0.00 0.00 0.00 86 1014.1
20240522110050 55 0 0.0 1.0 0.00 0.00 0.00 86 1014.3
20240522105545 55 275 0.0 2.0 0.00 0.00 0.00 86 1014.3
20240522105044 55 0 0.0 2.0 0.00 0.00 0.00 86 1014.5
20240522104546 55 296 0.0 1.0 0.00 0.00 0.00 86 1014.9
20240522104040 55 0 0.0 2.0 0.00 0.00 0.00 87 1014.9
20240522103544 55 255 0.0 2.0 0.00 0.00 0.00 87 1014.7
20240522103055 55 0 0.0 2.0 0.00 0.00 0.00 88 1014.7
20240522102544 54 0 0.0 2.0 0.00 0.00 0.00 88 1014.7
20240522102044 54 0 0.0 2.0 0.00 0.00 0.00 88 1014.7
20240522101549 54 242 0.0 1.0 0.00 0.00 0.00 88 1014.6
20240522101043 54 0 0.0 1.0 0.00 0.00 0.00 88 1014.4
20240522100545 54 0 0.0 2.0 0.00 0.00 0.00 88 1014.2
20240522100050 54 0 0.0 2.0 0.00 0.00 0.00 87 1014.1
20240522095544 54 0 0.0 2.0 0.00 0.00 0.00 87 1014.1
20240522095047 54 0 0.0 2.0 0.00 0.00 0.00 86 1014.3
20240522094550 54 0 0.0 2.0 0.00 0.00 0.00 86 1014.1
20240522094044 54 0 0.0 1.0 0.00 0.00 0.00 86 1014.0
20240522093545 55 0 0.0 2.0 0.00 0.00 0.00 86 1013.8
20240522093056 55 0 0.0 2.0 0.00 0.00 0.00 85 1013.5
20240522092544 55 0 0.0 3.0 0.00 0.00 0.00 86 1013.6
20240522092044 54 0 0.0 3.0 0.00 0.00 0.00 86 1013.6
20240522091557 54 0 0.0 1.0 0.00 0.00 0.00 86 1013.6
20240522091047 54 0 0.0 1.0 0.00 0.00 0.00 85 1013.2
20240522090544 54 0 0.0 1.0 0.00 0.00 0.00 85 1013.4
20240522090046 55 0 0.0 1.0 0.00 0.00 0.00 85 1013.4
20240522085544 55 0 0.0 1.0 0.00 0.00 0.00 84 1013.1
20240522085045 55 0 0.0 1.0 0.00 0.00 0.00 84 1012.9
20240522084550 55 0 0.0 1.0 0.00 0.00 0.00 83 1012.7
20240522084041 56 0 0.0 1.0 0.00 0.00 0.00 83 1012.6
20240522083544 56 0 0.0 1.0 0.00 0.00 0.00 82 1012.4
20240522083057 56 0 0.0 1.0 0.00 0.00 0.00 82 1012.3
20240522082544 56 0 0.0 2.0 0.00 0.00 0.00 82 1012.3
20240522082043 56 0 0.0 3.0 0.00 0.00 0.00 82 1012.3
20240522081555 56 0 0.0 3.0 0.00 0.00 0.00 82 1012.2
20240522081041 57 0 0.0 4.0 0.00 0.00 0.00 82 1012.2
20240522080547 57 0 0.0 4.0 0.00 0.00 0.00 82 1012.2
20240522080047 57 0 1.0 3.0 0.00 0.00 0.00 82 1012.1
20240522075541 57 0 0.0 3.0 0.00 0.00 0.00 82 1012.0
20240522075048 56 0 0.0 3.0 0.00 0.00 0.00 82 1011.8
20240522074549 57 0 0.0 2.0 0.00 0.00 0.00 82 1011.5
20240522074044 57 0 0.0 4.0 0.00 0.00 0.00 82 1011.5
20240522073541 57 0 0.0 4.0 0.00 0.00 0.00 82 1011.3
20240522073049 57 0 0.0 4.0 0.00 0.00 0.00 82 1011.3
20240522072547 57 0 0.0 3.0 0.00 0.00 0.00 83 1011.3
20240522072048 57 316 0.0 3.0 0.00 0.00 0.00 83 1011.0
20240522071601 57 0 0.0 2.0 0.00 0.00 0.00 83 1010.8
20240522071044 56 0 0.0 0.0 0.00 0.00 0.00 83 1010.9
20240522070546 57 0 0.0 0.0 0.00 0.00 0.00 83 1010.7
20240522070058 57 0 0.0 1.0 0.00 0.00 0.00 82 1010.8
20240522065545 57 0 0.0 1.0 0.00 0.00 0.00 82 1011.0
20240522065043 57 0 0.0 1.0 0.00 0.00 0.00 83 1011.3
20240522064556 57 0 0.0 1.0 0.00 0.00 0.00 83 1011.4
20240522064045 57 0 0.0 1.0 0.00 0.00 0.00 83 1011.1
20240522063541 57 0 0.0 1.0 0.00 0.00 0.00 83 1011.1
20240522063056 57 0 0.0 0.0 0.00 0.00 0.00 83 1011.0
20240522062545 58 0 0.0 0.0 0.00 0.00 0.00 82 1011.3
20240522062041 58 0 0.0 2.0 0.00 0.00 0.00 81 1011.4
20240522061558 58 0 0.0 2.0 0.00 0.00 0.00 81 1011.5
20240522061043 58 0 0.0 2.0 0.00 0.00 0.00 82 1011.9
20240522060541 58 292 0.0 1.0 0.00 0.00 0.00 82 1012.1
20240522060058 58 0 0.0 0.0 0.00 0.00 0.00 82 1011.9
20240522055544 58 0 0.0 1.0 0.00 0.00 0.00 81 1012.1
20240522055040 58 0 0.0 1.0 0.00 0.00 0.00 80 1012.0
20240522054548 59 0 0.0 1.0 0.00 0.00 0.00 80 1011.7
20240522054041 59 0 0.0 2.0 0.00 0.00 0.00 79 1011.9
20240522053541 59 0 0.0 2.0 0.00 0.00 0.00 78 1011.8
20240522053047 60 0 0.0 2.0 0.00 0.00 0.00 77 1011.9
20240522052544 60 0 0.0 4.0 0.00 0.00 0.00 76 1012.0
20240522052042 60 282 0.0 4.0 0.00 0.00 0.00 75 1011.9
20240522051556 61 0 0.0 4.0 0.00 0.00 0.00 75 1011.9
20240522051044 61 0 0.0 2.0 0.00 0.00 0.00 74 1011.9
20240522050541 61 0 0.0 4.0 0.00 0.00 0.00 74 1011.9
20240522050052 62 0 1.0 4.0 0.00 0.00 0.00 73 1011.8
20240522045541 62 0 0.0 5.0 0.00 0.00 0.00 73 1011.8
20240522045041 62 342 0.0 7.0 0.00 0.00 0.00 72 1011.8
20240522044553 62 5 2.0 7.0 0.00 0.00 0.00 72 1011.7
20240522044045 62 336 1.0 5.0 0.00 0.00 0.00 73 1011.8
20240522043548 62 322 0.0 5.0 0.00 0.00 0.00 74 1011.9
20240522043043 62 290 1.0 4.0 0.00 0.00 0.00 75 1011.9
20240522042544 63 280 0.0 3.0 0.00 0.00 0.00 74 1011.6
20240522042040 63 0 0.0 4.0 0.00 0.00 0.00 74 1011.6
20240522041556 62 318 1.0 4.0 0.00 0.00 0.00 74 1011.6
20240522041044 62 0 1.0 4.0 0.00 0.00 0.00 75 1011.4
20240522040544 61 0 0.0 3.0 0.00 0.00 0.00 77 1011.3
20240522040054 60 0 0.0 3.0 0.00 0.00 0.00 79 1011.2
20240522035543 60 286 0.0 3.0 0.00 0.00 0.00 79 1011.2
20240522035042 60 0 0.0 0.0 0.00 0.00 0.00 79 1011.1
20240522034548 60 0 0.0 0.0 0.00 0.00 0.00 79 1011.0
20240522034042 61 0 0.0 0.0 0.00 0.00 0.00 78 1010.7
20240522033542 61 0 0.0 0.0 0.00 0.00 0.00 78 1010.6
20240522033046 60 0 0.0 1.0 0.00 0.00 0.00 78 1010.6
20240522032544 61 0 0.0 1.0 0.00 0.00 0.00 78 1010.4
20240522032044 61 0 0.0 1.0 0.00 0.00 0.00 78 1010.3
20240522031552 61 0 0.0 0.0 0.00 0.00 0.00 77 1010.1
20240522031045 61 0 0.0 0.0 0.00 0.00 0.00 77 1010.2
20240522030541 61 0 0.0 0.0 0.00 0.00 0.00 76 1010.0
20240522030049 62 0 0.0 0.0 0.00 0.00 0.00 76 1009.8
20240522025544 62 0 0.0 0.0 0.00 0.00 0.00 75 1009.8
20240522025044 62 0 0.0 0.0 0.00 0.00 0.00 75 1009.7
20240522024546 63 0 0.0 0.0 0.00 0.00 0.00 74 1009.6
20240522024044 63 0 0.0 1.0 0.00 0.00 0.00 73 1009.7
20240522023546 63 0 0.0 1.0 0.00 0.00 0.00 72 1009.5
20240522023048 64 0 0.0 2.0 0.00 0.00 0.00 71 1009.4
20240522022544 64 0 0.0 2.0 0.00 0.00 0.00 71 1009.2
20240522022042 64 0 0.0 3.0 0.00 0.00 0.00 70 1009.2
20240522021601 65 0 0.0 3.0 0.00 0.00 0.00 69 1009.2
20240522021041 65 327 0.0 3.0 0.00 0.00 0.00 69 1009.1
20240522020542 65 0 0.0 2.0 0.00 0.00 0.00 69 1009.0
20240522020045 65 0 0.0 2.0 0.00 0.00 0.00 69 1008.9
20240522015541 66 0 0.0 3.0 0.00 0.00 0.00 69 1008.8
20240522015041 66 0 0.0 4.0 0.00 0.00 0.00 68 1008.7
20240522014556 66 302 0.0 4.0 0.00 0.00 0.00 68 1008.6
20240522014046 66 0 0.0 4.0 0.00 0.00 0.00 68 1008.4
20240522013541 67 0 0.0 2.0 0.00 0.00 0.00 67 1008.4
20240522013104 67 0 0.0 4.0 0.00 0.00 0.00 66 1008.3
20240522012541 67 287 0.0 4.0 0.00 0.00 0.00 65 1008.3
20240522012045 67 331 1.0 4.0 0.00 0.00 0.00 66 1008.1
20240522011549 67 24 0.0 6.0 0.00 0.00 0.00 66 1007.8
20240522011044 68 352 1.0 6.0 0.00 0.00 0.00 65 1007.7
20240522010543 68 317 1.0 6.0 0.00 0.00 0.00 64 1007.5
20240522010110 68 276 1.0 6.0 0.00 0.00 0.00 65 1007.2
20240522005544 68 0 1.0 7.0 0.00 0.00 0.00 64 1007.1
20240522005041 68 0 1.0 10.0 0.00 0.00 0.00 63 1007.0
20240522004552 69 0 2.0 10.0 0.00 0.00 0.00 63 1006.7
20240522004041 69 294 1.0 11.0 0.00 0.00 0.00 62 1006.5
20240522003541 69 5 2.0 11.0 0.00 0.00 0.00 62 1006.6
20240522003051 69 325 2.0 11.0 0.00 0.00 0.00 63 1006.5
20240522002541 69 304 1.0 12.0 0.00 0.00 0.00 62 1006.5
20240522002042 69 302 2.0 12.0 0.00 0.00 0.00 62 1006.4
20240522001554 69 355 2.0 12.0 0.00 0.00 0.00 61 1006.2
20240522001041 69 333 1.0 12.0 0.00 0.00 0.00 62 1005.9
20240522000541 69 5 0.0 13.0 0.00 0.00 0.00 61 1006.0
20240522000051 70 0 3.0 13.0 0.00 0.00 0.00 60 1005.9
20240521235540 70 314 2.0 13.0 0.00 0.00 0.00 61 1005.8
20240521235043 70 350 2.0 11.0 0.00 0.00 0.00 62 1005.8
20240521234549 70 352 1.0 10.0 0.00 0.00 0.00 62 1005.7
20240521234042 70 245 3.0 10.0 0.00 0.00 0.00 62 1005.6
20240521233541 70 330 2.0 8.0 0.00 0.00 0.00 63 1005.5
20240521233048 70 20 2.0 12.0 0.00 0.00 0.00 63 1005.5
20240521232541 70 0 3.0 14.0 0.00 0.00 0.00 63 1005.6
20240521232043 70 5 4.0 14.0 0.00 0.00 0.00 63 1005.6
20240521231553 70 278 4.0 19.0 0.00 0.00 0.00 63 1005.4
20240521231045 70 360 5.0 19.0 0.00 0.00 0.00 63 1005.5
20240521230545 70 231 6.0 19.0 0.00 0.00 0.00 62 1005.4
20240521230109 70 292 5.0 18.0 0.00 0.00 0.00 63 1005.3
20240521225541 70 254 4.0 15.0 0.00 0.00 0.00 64 1005.2
20240521225041 71 299 4.0 17.0 0.00 0.00 0.00 64 1005.2
20240521224605 71 259 3.0 17.0 0.00 0.00 0.00 64 1005.1
20240521224041 71 308 4.0 16.0 0.00 0.00 0.00 64 1004.9
20240521223540 71 277 3.0 21.0 0.00 0.00 0.00 64 1004.8
20240521223048 71 257 6.0 21.0 0.00 0.00 0.00 64 1004.7
20240521222540 71 349 5.0 19.0 0.00 0.00 0.00 63 1004.5
20240521222041 71 325 5.0 14.0 0.00 0.00 0.00 64 1004.3
20240521221553 72 283 2.0 14.0 0.00 0.00 0.00 65 1004.4
20240521221041 72 5 3.0 15.0 0.00 0.00 0.00 64 1004.3
20240521220544 71 0 5.0 15.0 0.00 0.00 0.00 65 1004.2
20240521220057 70 293 5.0 19.0 0.00 0.00 0.00 66 1004.3
20240521215543 71 288 5.0 19.0 0.00 0.00 0.00 66 1004.2
20240521215041 72 15 5.0 19.0 0.00 0.00 0.00 64 1004.2
20240521214604 72 263 6.0 25.0 0.00 0.00 0.00 66 1003.9
20240521214041 71 22 3.0 25.0 0.00 0.00 0.00 67 1003.8
20240521213543 72 271 5.0 21.0 0.00 0.00 0.00 66 1004.0
20240521213056 71 315 8.0 21.0 0.00 0.00 0.00 65 1003.8
20240521212541 72 309 5.0 18.0 0.00 0.00 0.00 66 1003.6
20240521212041 72 279 3.0 18.0 0.00 0.00 0.00 66 1003.6
20240521211551 72 230 7.0 18.0 0.00 0.00 0.00 65 1003.4
20240521211044 73 274 3.0 17.0 0.00 0.00 0.00 65 1003.4
20240521210541 74 220 4.0 20.0 0.00 0.00 0.00 63 1003.3
20240521210049 75 299 5.0 21.0 0.00 0.00 0.00 61 1003.1
20240521205540 77 205 8.0 21.0 0.00 0.00 0.00 59 1002.9
20240521205046 76 234 7.0 18.0 0.00 0.00 0.00 59 1002.7
20240521204544 76 293 4.0 24.0 0.00 0.00 0.00 59 1002.7
20240521204040 77 180 6.0 24.0 0.00 0.00 0.00 59 1002.6
20240521203543 77 172 5.0 24.0 0.00 0.00 0.00 58 1002.6
20240521203053 77 88 8.0 21.0 0.00 0.00 0.00 59 1002.6
20240521202546 77 279 8.0 21.0 0.00 0.00 0.00 59 1002.7
20240521202041 78 274 6.0 25.0 0.00 0.00 0.00 59 1002.7
20240521201552 78 248 4.0 25.0 0.00 0.00 0.00 59 1002.4
20240521201042 78 250 7.0 25.0 0.00 0.00 0.00 59 1002.2
20240521200545 79 317 5.0 21.0 0.00 0.00 0.00 59 1002.2
20240521200104 78 207 7.0 22.0 0.00 0.00 0.00 59 1002.0
20240521195541 78 157 10.0 22.0 0.00 0.00 0.00 57 1002.0
20240521195041 79 197 6.0 24.0 0.00 0.00 0.00 59 1002.1
20240521194555 79 158 9.0 24.0 0.00 0.00 0.00 58 1001.9
20240521194043 79 196 9.0 24.0 0.00 0.00 0.00 58 1001.8
20240521193540 80 218 7.0 24.0 0.00 0.00 0.00 57 1001.5
20240521193047 82 28 7.0 20.0 0.00 0.00 0.00 57 1001.3
20240521192541 81 257 9.0 20.0 0.00 0.00 0.00 54 1001.0
20240521192041 83 277 6.0 19.0 0.00 0.00 0.00 53 1001.0
20240521191555 84 224 4.0 19.0 0.00 0.00 0.00 55 1000.6
20240521191044 83 264 6.0 25.0 0.00 0.00 0.00 54 1000.6
20240521190546 82 294 7.0 25.0 0.00 0.00 0.00 57 1000.4
20240521190058 83 341 7.0 18.0 0.00 0.00 0.00 55 1000.2
20240521185543 84 327 4.0 18.0 0.00 0.00 0.00 56 1000.2
20240521185044 84 236 6.0 18.0 0.00 0.00 0.00 54 1000.0
20240521184606 83 259 10.0 18.0 0.00 0.00 0.00 54 1000.0
20240521184046 84 219 6.0 17.0 0.00 0.00 0.00 54 999.7
20240521183541 86 159 8.0 17.0 0.00 0.00 0.00 57 999.3
20240521183059 87 204 9.0 17.0 0.00 0.00 0.00 56 999.2
20240521182541 85 169 6.0 22.0 0.00 0.00 0.00 61 999.1
20240521182041 84 205 6.0 22.0 0.00 0.00 0.00 62 999.3
20240521181552 84 207 6.0 22.0 0.00 0.00 0.00 64 999.2
20240521181040 84 237 6.0 22.0 0.00 0.00 0.00 64 999.2
20240521180546 85 210 8.0 24.0 0.00 0.00 0.00 62 999.2
20240521180055 85 183 6.0 24.0 0.00 0.00 0.00 62 999.3
20240521175544 86 174 7.0 21.0 0.00 0.00 0.00 63 999.2
20240521175044 85 205 9.0 21.0 0.00 0.00 0.00 63 999.1
20240521174545 85 212 6.0 20.0 0.00 0.00 0.00 65 999.1
20240521174048 85 84 7.0 20.0 0.00 0.00 0.00 65 999.2
20240521173543 85 193 6.0 15.0 0.00 0.00 0.00 65 999.2
20240521173051 84 178 5.0 24.0 0.00 0.00 0.00 68 999.2
20240521172544 84 175 5.0 24.0 0.00 0.00 0.00 68 999.2
20240521172041 84 205 12.0 24.0 0.00 0.00 0.00 67 999.4
20240521171610 84 198 7.0 23.0 0.00 0.00 0.00 66 999.5
20240521171041 84 226 8.0 16.0 0.00 0.00 0.00 68 999.0
20240521170543 83 176 6.0 19.0 0.00 0.00 0.00 69 999.0
20240521170053 82 136 7.0 20.0 0.00 0.00 0.00 71 999.1
20240521165544 82 169 7.0 20.0 0.00 0.00 0.00 70 999.0
20240521165044 82 169 6.0 17.0 0.00 0.00 0.00 71 998.9
20240521164548 82 169 6.0 15.0 0.00 0.00 0.00 70 999.1
20240521164044 82 196 4.0 17.0 0.00 0.00 0.00 71 999.0
20240521163541 82 173 8.0 22.0 0.00 0.00 0.00 71 998.8
20240521163048 82 206 7.0 22.0 0.00 0.00 0.00 71 999.2
20240521162547 82 229 4.0 14.0 0.00 0.00 0.00 72 999.1
20240521162044 81 172 5.0 15.0 0.00 0.00 0.00 74 999.4
20240521161552 79 198 5.0 15.0 0.00 0.00 0.00 75 999.5
20240521161040 79 184 3.0 15.0 0.00 0.00 0.00 75 999.6
20240521160544 79 218 4.0 11.0 0.00 0.00 0.00 76 999.5
20240521160052 79 146 5.0 12.0 0.00 0.00 0.00 76 999.6
20240521155543 79 157 4.0 17.0 0.00 0.00 0.00 76 999.5
20240521155043 78 132 4.0 17.0 0.00 0.00 0.00 77 999.5
20240521154602 78 236 3.0 12.0 0.00 0.00 0.00 77 999.7
20240521154043 78 169 2.0 19.0 0.00 0.00 0.00 77 999.7
20240521153543 78 180 7.0 19.0 0.00 0.00 0.00 77 999.7
20240521153047 77 142 2.0 12.0 0.00 0.00 0.00 78 999.6
20240521152542 77 159 3.0 12.0 0.00 0.00 0.00 78 999.6
20240521152041 77 182 4.0 11.0 0.00 0.00 0.00 78 999.7
20240521151556 77 192 1.0 10.0 0.00 0.00 0.00 79 999.8
20240521151043 77 163 3.0 10.0 0.00 0.00 0.00 79 1000.0
20240521150540 76 190 2.0 10.0 0.00 0.00 0.00 79 1000.1
20240521150047 76 163 3.0 15.0 0.00 0.00 0.00 80 1000.0
20240521145541 75 212 6.0 15.0 0.00 0.00 0.00 80 1000.2
20240521145041 75 188 6.0 13.0 0.00 0.00 0.00 80 1000.2
20240521144549 75 173 5.0 13.0 0.00 0.00 0.00 81 1000.3
20240521144040 75 186 4.0 13.0 0.00 0.00 0.00 81 1000.3